Location: Jackson Park
(37.2862°N, 79.9123°W)
Time: 23:06:48
(UTC+00:00)

Transit 4A - Pass Details

Date: 13 May 2026
Orbit: 861 x 980 km, 66.8° (Epoch: 5 June)

Event Time Altitude Azimuth Distance (km) Brightness Sun altitude
Rises 15:20:41 0° 262° (W) 3,563 10.7 58.6°
Reaches altitude 10° 15:24:27 10° 285° (WNW) 2,650 10.1 59.2°
Maximum altitude 15:27:50 15° 318° (NW) 2,334 9.9 59.8°
Drops below altitude 10° 15:31:16 10° 352° (N) 2,697 10.2 60.4°
Sets 15:35:11 0° 15° (NNE) 3,666 10.9 61.0°
